Location: Bieg
(49.3499°N, 10.3835°E)
Time: 11:21:46
(UTC+00:00)

SL-8 R/B - Pass Details

Date: 23 May 2024
Orbit: 652 x 662 km, 48.4° (Epoch: 20 June)

Event Time Altitude Azimuth Distance (km) Brightness Sun altitude
Rises 00:58:46 0° 283° (WNW) 2,977 6.9 -16.3°
Reaches altitude 10° 01:01:13 10° 276° (W) 2,065 6.0 -16.1°
Maximum altitude 01:05:37 38° 208° (SSW) 998 4.1 -15.8°
Drops below altitude 10° 01:10:01 10° 141° (SE) 2,064 6.0 -15.5°
Sets 01:12:29 0° 133° (SE) 2,975 6.9 -15.3°
